Year,Month,Day,Hour,Minute,Value (Times are PST for temperature in C)
2010,06,16,00,00,9.20
2010,06,16,00,01,9.20
2010,06,16,00,02,9.20
2010,06,16,00,03,9.20
2010,06,16,00,04,9.10
2010,06,16,00,05,9.20
2010,06,16,00,06,9.20
2010,06,16,00,07,9.20
2010,06,16,00,08,9.20
2010,06,16,00,09,9.20
2010,06,16,00,10,9.20
2010,06,16,00,11,9.20
2010,06,16,00,12,9.20
2010,06,16,00,13,9.20
2010,06,16,00,14,9.20
2010,06,16,00,15,9.20
2010,06,16,00,16,9.20
2010,06,16,00,17,9.30
2010,06,16,00,18,9.30
2010,06,16,00,19,9.30
2010,06,16,00,20,9.30
2010,06,16,00,21,9.30
2010,06,16,00,22,9.30
2010,06,16,00,23,9.30
2010,06,16,00,24,9.30
2010,06,16,00,25,9.20
2010,06,16,00,26,9.20
2010,06,16,00,27,9.20
2010,06,16,00,28,9.20
2010,06,16,00,29,9.20
2010,06,16,00,30,9.20
2010,06,16,00,31,9.20
2010,06,16,00,32,9.20
2010,06,16,00,33,9.10
2010,06,16,00,34,9.10
2010,06,16,00,35,9.00
2010,06,16,00,36,9.00
2010,06,16,00,37,9.00
2010,06,16,00,38,8.90
2010,06,16,00,39,8.90
2010,06,16,00,40,8.90
2010,06,16,00,41,8.90
2010,06,16,00,42,8.90
2010,06,16,00,43,8.90
2010,06,16,00,44,8.90
2010,06,16,00,45,8.90
2010,06,16,00,46,8.90
2010,06,16,00,47,8.90
2010,06,16,00,48,8.90
2010,06,16,00,49,8.90
2010,06,16,00,50,8.80
2010,06,16,00,51,8.80
2010,06,16,00,52,8.80
2010,06,16,00,53,8.70
2010,06,16,00,54,8.70
2010,06,16,00,55,8.70
2010,06,16,00,56,8.70
2010,06,16,00,57,8.60
2010,06,16,00,58,8.60
2010,06,16,00,59,8.60
2010,06,16,01,00,8.50
2010,06,16,01,01,8.50
2010,06,16,01,02,8.50
2010,06,16,01,03,8.50
2010,06,16,01,04,8.50
2010,06,16,01,05,8.50
2010,06,16,01,06,8.50
2010,06,16,01,07,8.50
2010,06,16,01,08,8.50
2010,06,16,01,09,8.50
2010,06,16,01,10,8.50
2010,06,16,01,11,8.50
2010,06,16,01,12,8.50
2010,06,16,01,13,8.50
2010,06,16,01,14,8.50
2010,06,16,01,15,8.50
2010,06,16,01,16,8.50
2010,06,16,01,17,8.50
2010,06,16,01,18,8.50
2010,06,16,01,19,8.50
2010,06,16,01,20,8.50
2010,06,16,01,21,8.40
2010,06,16,01,22,8.40
2010,06,16,01,23,8.40
2010,06,16,01,24,8.40
2010,06,16,01,25,8.40
2010,06,16,01,26,8.40
2010,06,16,01,27,8.40
2010,06,16,01,28,8.40
2010,06,16,01,29,8.30
2010,06,16,01,30,8.30
2010,06,16,01,31,8.30
2010,06,16,01,32,8.20
2010,06,16,01,33,8.20
2010,06,16,01,34,8.20
2010,06,16,01,35,8.10
2010,06,16,01,36,8.10
2010,06,16,01,37,8.00
2010,06,16,01,38,8.00
2010,06,16,01,39,7.90
2010,06,16,01,40,7.90
2010,06,16,01,41,7.80
2010,06,16,01,42,7.80
2010,06,16,01,43,7.80
2010,06,16,01,44,7.80
2010,06,16,01,45,7.70
2010,06,16,01,46,7.70
2010,06,16,01,47,7.70
2010,06,16,01,48,7.60
2010,06,16,01,49,7.60
2010,06,16,01,50,7.60
2010,06,16,01,51,7.60
2010,06,16,01,52,7.60
2010,06,16,01,53,7.60
2010,06,16,01,54,7.50
2010,06,16,01,55,7.50
2010,06,16,01,56,7.60
2010,06,16,01,57,7.60
2010,06,16,01,58,7.60
2010,06,16,01,59,7.60
2010,06,16,02,00,7.60
2010,06,16,02,01,7.60
2010,06,16,02,02,7.60
2010,06,16,02,03,7.60
2010,06,16,02,04,7.60
2010,06,16,02,05,7.60
2010,06,16,02,06,7.60
2010,06,16,02,07,7.60
2010,06,16,02,08,7.60
2010,06,16,02,09,7.60
2010,06,16,02,10,7.70
2010,06,16,02,11,7.70
2010,06,16,02,12,7.70
2010,06,16,02,13,7.70
2010,06,16,02,14,7.70
2010,06,16,02,15,7.70
2010,06,16,02,16,7.80
2010,06,16,02,17,7.80
2010,06,16,02,18,7.80
2010,06,16,02,19,7.80
2010,06,16,02,20,7.80
2010,06,16,02,21,7.80
2010,06,16,02,22,7.80
2010,06,16,02,23,7.80
2010,06,16,02,24,7.70
2010,06,16,02,25,7.70
2010,06,16,02,26,7.70
2010,06,16,02,27,7.70
2010,06,16,02,28,7.70
2010,06,16,02,29,7.70
2010,06,16,02,30,7.60
2010,06,16,02,31,7.60
2010,06,16,02,32,7.60
2010,06,16,02,33,7.50
2010,06,16,02,34,7.50
2010,06,16,02,35,7.40
2010,06,16,02,36,7.40
2010,06,16,02,37,7.40
2010,06,16,02,38,7.30
2010,06,16,02,39,7.30
2010,06,16,02,40,7.30
2010,06,16,02,41,7.30
2010,06,16,02,42,7.30
2010,06,16,02,43,7.20
2010,06,16,02,44,7.20
2010,06,16,02,45,7.20
2010,06,16,02,46,7.20
2010,06,16,02,47,7.20
2010,06,16,02,48,7.20
2010,06,16,02,49,7.20
2010,06,16,02,50,7.10
2010,06,16,02,51,7.10
2010,06,16,02,52,7.10
2010,06,16,02,53,7.10
2010,06,16,02,54,7.10
2010,06,16,02,55,7.10
2010,06,16,02,56,7.00
2010,06,16,02,57,7.00
2010,06,16,02,58,7.00
2010,06,16,02,59,7.00
2010,06,16,03,00,6.90
2010,06,16,03,01,6.90
2010,06,16,03,02,6.90
2010,06,16,03,03,6.90
2010,06,16,03,04,6.80
2010,06,16,03,05,6.80
2010,06,16,03,06,6.80
2010,06,16,03,07,6.80
2010,06,16,03,08,6.80
2010,06,16,03,09,6.80
2010,06,16,03,10,6.80
2010,06,16,03,11,6.80
2010,06,16,03,12,6.80
2010,06,16,03,13,6.80
2010,06,16,03,14,6.80
2010,06,16,03,15,6.80
2010,06,16,03,16,6.80
2010,06,16,03,17,6.80
2010,06,16,03,18,6.80
2010,06,16,03,19,6.80
2010,06,16,03,20,6.80
2010,06,16,03,21,6.80
2010,06,16,03,22,6.80
2010,06,16,03,23,6.80
2010,06,16,03,24,6.80
2010,06,16,03,25,6.80
2010,06,16,03,26,6.70
2010,06,16,03,27,6.70
2010,06,16,03,28,6.70
2010,06,16,03,29,6.70
2010,06,16,03,30,6.60
2010,06,16,03,31,6.60
2010,06,16,03,32,6.60
2010,06,16,03,33,6.60
2010,06,16,03,34,6.60
2010,06,16,03,35,6.60
2010,06,16,03,36,6.60
2010,06,16,03,37,6.50
2010,06,16,03,38,6.50
2010,06,16,03,39,6.50
2010,06,16,03,40,6.50
2010,06,16,03,41,6.50
2010,06,16,03,42,6.50
2010,06,16,03,43,6.50
2010,06,16,03,44,6.60
2010,06,16,03,45,6.60
2010,06,16,03,46,6.60
2010,06,16,03,47,6.60
2010,06,16,03,48,6.60
2010,06,16,03,49,6.60
2010,06,16,03,50,6.60
2010,06,16,03,51,6.60
2010,06,16,03,52,6.70
2010,06,16,03,53,6.70
2010,06,16,03,54,6.70
2010,06,16,03,55,6.70
2010,06,16,03,56,6.70
2010,06,16,03,57,6.70
2010,06,16,03,58,6.80
2010,06,16,03,59,6.80
2010,06,16,04,00,6.80
2010,06,16,04,01,6.80
2010,06,16,04,02,6.80
2010,06,16,04,03,6.80
2010,06,16,04,04,6.80
2010,06,16,04,05,6.90
2010,06,16,04,06,6.90
2010,06,16,04,07,6.90
2010,06,16,04,08,6.90
2010,06,16,04,09,6.90
2010,06,16,04,10,6.90
2010,06,16,04,11,6.90
2010,06,16,04,12,6.90
2010,06,16,04,13,6.90
2010,06,16,04,14,6.90
2010,06,16,04,15,6.90
2010,06,16,04,16,6.90
2010,06,16,04,17,6.90
2010,06,16,04,18,6.90
2010,06,16,04,19,6.90
2010,06,16,04,20,6.90
2010,06,16,04,21,6.80
2010,06,16,04,22,6.80
2010,06,16,04,23,6.80
2010,06,16,04,24,6.80
2010,06,16,04,25,6.80
2010,06,16,04,26,6.80
2010,06,16,04,27,6.70
2010,06,16,04,28,6.70
2010,06,16,04,29,6.70
2010,06,16,04,30,6.70
2010,06,16,04,31,6.70
2010,06,16,04,32,6.60
2010,06,16,04,33,6.60
2010,06,16,04,34,6.60
2010,06,16,04,35,6.60
2010,06,16,04,36,6.50
2010,06,16,04,37,6.50
2010,06,16,04,38,6.50
2010,06,16,04,39,6.40
2010,06,16,04,40,6.40
2010,06,16,04,41,6.40
2010,06,16,04,42,6.40
2010,06,16,04,43,6.40
2010,06,16,04,44,6.30
2010,06,16,04,45,6.30
2010,06,16,04,46,6.30
2010,06,16,04,47,6.30
2010,06,16,04,48,6.30
2010,06,16,04,49,6.20
2010,06,16,04,50,6.20
2010,06,16,04,51,6.20
2010,06,16,04,52,6.20
2010,06,16,04,53,6.20
2010,06,16,04,54,6.20
2010,06,16,04,55,6.10
2010,06,16,04,56,6.10
2010,06,16,04,57,6.10
2010,06,16,04,58,6.10
2010,06,16,04,59,6.10
2010,06,16,05,00,6.10
2010,06,16,05,01,6.00
2010,06,16,05,02,6.00
2010,06,16,05,03,6.00
2010,06,16,05,04,6.00
2010,06,16,05,05,6.00
2010,06,16,05,06,6.00
2010,06,16,05,07,6.00
2010,06,16,05,08,6.00
2010,06,16,05,09,6.00
2010,06,16,05,10,6.00
2010,06,16,05,11,6.00
2010,06,16,05,12,6.00
2010,06,16,05,13,6.00
2010,06,16,05,14,6.00
2010,06,16,05,15,5.90
2010,06,16,05,16,5.90
2010,06,16,05,17,5.90
2010,06,16,05,18,5.90
2010,06,16,05,19,5.90
2010,06,16,05,20,5.90
2010,06,16,05,21,5.90
2010,06,16,05,22,5.80
2010,06,16,05,23,5.90
2010,06,16,05,24,5.80
2010,06,16,05,25,5.80
2010,06,16,05,26,5.80
2010,06,16,05,27,5.80
2010,06,16,05,28,5.80
2010,06,16,05,29,5.80
2010,06,16,05,30,5.80
2010,06,16,05,31,5.80
2010,06,16,05,32,5.80
2010,06,16,05,33,5.80
2010,06,16,05,34,5.80
2010,06,16,05,35,5.80
2010,06,16,05,36,5.80
2010,06,16,05,37,5.80
2010,06,16,05,38,5.80
2010,06,16,05,39,5.80
2010,06,16,05,40,5.80
2010,06,16,05,41,5.80
2010,06,16,05,42,5.80
2010,06,16,05,43,5.80
2010,06,16,05,44,5.80
2010,06,16,05,45,5.80
2010,06,16,05,46,5.90
2010,06,16,05,47,5.90
2010,06,16,05,48,5.90
2010,06,16,05,49,5.90
2010,06,16,05,50,5.90
2010,06,16,05,51,5.90
2010,06,16,05,52,5.90
2010,06,16,05,53,5.90
2010,06,16,05,54,5.90
2010,06,16,05,55,5.90
2010,06,16,05,56,5.90
2010,06,16,05,57,5.90
2010,06,16,05,58,6.00
2010,06,16,05,59,6.00
2010,06,16,06,00,6.00
2010,06,16,06,01,6.00
2010,06,16,06,02,6.00
2010,06,16,06,03,6.00
2010,06,16,06,04,6.00
2010,06,16,06,05,6.10
2010,06,16,06,06,6.10
2010,06,16,06,07,6.10
2010,06,16,06,08,6.10
2010,06,16,06,09,6.10
2010,06,16,06,10,6.10
2010,06,16,06,11,6.10
2010,06,16,06,12,6.10
2010,06,16,06,13,6.20
2010,06,16,06,14,6.20
2010,06,16,06,15,6.20
2010,06,16,06,16,6.20
2010,06,16,06,17,6.20
2010,06,16,06,18,6.20
2010,06,16,06,19,6.20
2010,06,16,06,20,6.20
2010,06,16,06,21,6.20
2010,06,16,06,22,6.20
2010,06,16,06,23,6.20
2010,06,16,06,24,6.20
2010,06,16,06,25,6.20
2010,06,16,06,26,6.20
2010,06,16,06,27,6.20
2010,06,16,06,28,6.20
2010,06,16,06,29,6.20
2010,06,16,06,30,6.20
2010,06,16,06,31,6.20
2010,06,16,06,32,6.20
2010,06,16,06,33,6.20
2010,06,16,06,34,6.20
2010,06,16,06,35,6.20
2010,06,16,06,36,6.10
2010,06,16,06,37,6.10
2010,06,16,06,38,6.10
2010,06,16,06,39,6.10
2010,06,16,06,40,6.10
2010,06,16,06,41,6.20
2010,06,16,06,42,6.20
2010,06,16,06,43,6.20
2010,06,16,06,44,6.20
2010,06,16,06,45,6.20
2010,06,16,06,46,6.30
2010,06,16,06,47,6.40
2010,06,16,06,48,6.40
2010,06,16,06,49,6.50
2010,06,16,06,50,6.60
2010,06,16,06,51,6.70
2010,06,16,06,52,6.70
2010,06,16,06,53,6.80
2010,06,16,06,54,6.80
2010,06,16,06,55,6.90
2010,06,16,06,56,7.00
2010,06,16,06,57,7.10
2010,06,16,06,58,7.10
2010,06,16,06,59,7.20
2010,06,16,07,00,7.20
2010,06,16,07,01,7.30
2010,06,16,07,02,7.30
2010,06,16,07,03,7.40
2010,06,16,07,04,7.50
2010,06,16,07,05,7.50
2010,06,16,07,06,7.60
2010,06,16,07,07,7.70
2010,06,16,07,08,7.70
2010,06,16,07,09,7.80
2010,06,16,07,10,7.80
2010,06,16,07,11,7.90
2010,06,16,07,12,7.90
2010,06,16,07,13,8.00
2010,06,16,07,14,8.00
2010,06,16,07,15,8.10
2010,06,16,07,16,8.10
2010,06,16,07,17,8.10
2010,06,16,07,18,8.20
2010,06,16,07,19,8.20
2010,06,16,07,20,8.20
2010,06,16,07,21,8.30
2010,06,16,07,22,8.30
2010,06,16,07,23,8.30
2010,06,16,07,24,8.40
2010,06,16,07,25,8.40
2010,06,16,07,26,8.40
2010,06,16,07,27,8.50
2010,06,16,07,28,8.50
2010,06,16,07,29,8.50
2010,06,16,07,30,8.60
2010,06,16,07,31,8.60
2010,06,16,07,32,8.60
2010,06,16,07,33,8.60
2010,06,16,07,34,8.70
2010,06,16,07,35,8.70
2010,06,16,07,36,8.70
2010,06,16,07,37,8.70
2010,06,16,07,38,8.70
2010,06,16,07,39,8.80
2010,06,16,07,40,8.80
2010,06,16,07,41,8.80
2010,06,16,07,42,8.80
2010,06,16,07,43,8.90
2010,06,16,07,44,8.90
2010,06,16,07,45,8.90
2010,06,16,07,46,8.90
2010,06,16,07,47,9.00
2010,06,16,07,48,9.00
2010,06,16,07,49,9.00
2010,06,16,07,50,9.10
2010,06,16,07,51,9.10
2010,06,16,07,52,9.20
2010,06,16,07,53,9.20
2010,06,16,07,54,9.20
2010,06,16,07,55,9.30
2010,06,16,07,56,9.30
2010,06,16,07,57,9.30
2010,06,16,07,58,9.30
2010,06,16,07,59,9.40
2010,06,16,08,00,9.40
2010,06,16,08,01,9.50
2010,06,16,08,02,9.50
2010,06,16,08,03,9.60
2010,06,16,08,04,9.60
2010,06,16,08,05,9.70
2010,06,16,08,06,9.80
2010,06,16,08,07,9.90
2010,06,16,08,08,9.90
2010,06,16,08,09,10.00
2010,06,16,08,10,10.00
2010,06,16,08,11,10.10
2010,06,16,08,12,10.20
2010,06,16,08,13,10.30
2010,06,16,08,14,10.30
2010,06,16,08,15,10.30
2010,06,16,08,16,10.40
2010,06,16,08,17,10.40
2010,06,16,08,18,10.40
2010,06,16,08,19,10.50
2010,06,16,08,20,10.50
2010,06,16,08,21,10.60
2010,06,16,08,22,10.60
2010,06,16,08,23,10.60
2010,06,16,08,24,10.70
2010,06,16,08,25,10.70
2010,06,16,08,26,10.80
2010,06,16,08,27,10.80
2010,06,16,08,28,10.90
2010,06,16,08,29,11.00
2010,06,16,08,30,11.00
2010,06,16,08,31,11.10
2010,06,16,08,32,11.10
2010,06,16,08,33,11.00
2010,06,16,08,34,10.90
2010,06,16,08,35,10.90
2010,06,16,08,36,10.90
2010,06,16,08,37,10.90
2010,06,16,08,38,10.90
2010,06,16,08,39,10.90
2010,06,16,08,40,10.90
2010,06,16,08,41,10.90
2010,06,16,08,42,10.90
2010,06,16,08,43,11.00
2010,06,16,08,44,11.10
2010,06,16,08,45,11.10
2010,06,16,08,46,11.20
2010,06,16,08,47,11.20
2010,06,16,08,48,11.20
2010,06,16,08,49,11.30
2010,06,16,08,50,11.40
2010,06,16,08,51,11.40
2010,06,16,08,52,11.40
2010,06,16,08,53,11.40
2010,06,16,08,54,11.50
2010,06,16,08,55,11.50
2010,06,16,08,56,11.60
2010,06,16,08,57,11.60
2010,06,16,08,58,11.60
2010,06,16,08,59,11.50
2010,06,16,09,00,11.50
2010,06,16,09,01,11.50
2010,06,16,09,02,11.50
2010,06,16,09,03,11.50
2010,06,16,09,04,11.60
2010,06,16,09,05,11.60
2010,06,16,09,06,11.70
2010,06,16,09,07,11.70
2010,06,16,09,08,11.70
2010,06,16,09,09,11.70
2010,06,16,09,10,11.60
2010,06,16,09,11,11.60
2010,06,16,09,12,11.60
2010,06,16,09,13,11.60
2010,06,16,09,14,11.70
2010,06,16,09,15,11.70
2010,06,16,09,16,11.70
2010,06,16,09,17,11.80
2010,06,16,09,18,11.80
2010,06,16,09,19,11.90
2010,06,16,09,20,12.00
2010,06,16,09,21,12.10
2010,06,16,09,22,12.20
2010,06,16,09,23,12.30
2010,06,16,09,24,12.40
2010,06,16,09,25,12.50
2010,06,16,09,26,12.50
2010,06,16,09,27,12.60
2010,06,16,09,28,12.70
2010,06,16,09,29,12.80
2010,06,16,09,30,12.80
2010,06,16,09,31,12.80
2010,06,16,09,32,12.90
2010,06,16,09,33,13.00
2010,06,16,09,34,13.00
2010,06,16,09,35,13.00
2010,06,16,09,36,13.10
2010,06,16,09,37,13.10
2010,06,16,09,38,13.20
2010,06,16,09,39,13.20
2010,06,16,09,40,13.30
2010,06,16,09,41,13.40
2010,06,16,09,42,13.50
2010,06,16,09,43,13.50
2010,06,16,09,44,13.60
2010,06,16,09,45,13.60
2010,06,16,09,46,13.60
2010,06,16,09,47,13.70
2010,06,16,09,48,13.80
2010,06,16,09,49,13.80
2010,06,16,09,50,13.80
2010,06,16,09,51,13.80
2010,06,16,09,52,13.80
2010,06,16,09,53,13.80
2010,06,16,09,54,13.80
2010,06,16,09,55,13.90
2010,06,16,09,56,13.90
2010,06,16,09,57,13.90
2010,06,16,09,58,13.90
2010,06,16,09,59,13.90
2010,06,16,10,00,14.00
2010,06,16,10,01,14.00
2010,06,16,10,02,14.10
2010,06,16,10,03,14.20
2010,06,16,10,04,14.20
2010,06,16,10,05,14.30
2010,06,16,10,06,14.40
2010,06,16,10,07,14.40
2010,06,16,10,08,14.40
2010,06,16,10,09,14.40
2010,06,16,10,10,14.40
2010,06,16,10,11,14.40
2010,06,16,10,12,14.40
2010,06,16,10,13,14.40
2010,06,16,10,14,14.30
2010,06,16,10,15,14.30
2010,06,16,10,16,14.30
2010,06,16,10,17,14.30
2010,06,16,10,18,14.40
2010,06,16,10,19,14.50
2010,06,16,10,20,14.60
2010,06,16,10,21,14.60
2010,06,16,10,22,14.70
2010,06,16,10,23,14.70
2010,06,16,10,24,14.70
2010,06,16,10,25,14.80
2010,06,16,10,26,14.90
2010,06,16,10,27,15.00
2010,06,16,10,28,15.00
2010,06,16,10,29,15.00
2010,06,16,10,30,15.10
2010,06,16,10,31,15.20
2010,06,16,10,32,15.20
2010,06,16,10,33,15.30
2010,06,16,10,34,15.40
2010,06,16,10,35,15.50
2010,06,16,10,36,15.50
2010,06,16,10,37,15.60
2010,06,16,10,38,15.70
2010,06,16,10,39,15.80
2010,06,16,10,40,15.80
2010,06,16,10,41,15.90
2010,06,16,10,42,15.90
2010,06,16,10,43,15.90
2010,06,16,10,44,15.90
2010,06,16,10,45,16.00
2010,06,16,10,46,16.00
2010,06,16,10,47,16.10
2010,06,16,10,48,16.20
2010,06,16,10,49,16.30
2010,06,16,10,50,16.30
2010,06,16,10,51,16.30
2010,06,16,10,52,16.40
2010,06,16,10,53,16.40
2010,06,16,10,54,16.40
2010,06,16,10,55,16.40
2010,06,16,10,56,16.40
2010,06,16,10,57,16.50
2010,06,16,10,58,16.50
2010,06,16,10,59,16.60
2010,06,16,11,00,16.60
2010,06,16,11,01,16.50
2010,06,16,11,02,16.50
2010,06,16,11,03,16.40
2010,06,16,11,04,16.40
2010,06,16,11,05,16.40
2010,06,16,11,06,16.50
2010,06,16,11,07,16.60
2010,06,16,11,08,16.80
2010,06,16,11,09,16.90
2010,06,16,11,10,17.00
2010,06,16,11,11,17.10
2010,06,16,11,12,17.20
2010,06,16,11,13,17.30
2010,06,16,11,14,17.40
2010,06,16,11,15,17.40
2010,06,16,11,16,17.40
2010,06,16,11,17,17.40
2010,06,16,11,18,17.40
2010,06,16,11,19,17.40
2010,06,16,11,20,17.50
2010,06,16,11,21,17.50
2010,06,16,11,22,17.60
2010,06,16,11,23,17.60
2010,06,16,11,24,17.60
2010,06,16,11,25,17.70
2010,06,16,11,26,17.70
2010,06,16,11,27,17.80
2010,06,16,11,28,17.80
2010,06,16,11,29,17.80
2010,06,16,11,30,17.80
2010,06,16,11,31,17.80
2010,06,16,11,32,17.70
2010,06,16,11,33,17.70
2010,06,16,11,34,17.60
2010,06,16,11,35,17.50
2010,06,16,11,36,17.30
2010,06,16,11,37,17.20
2010,06,16,11,38,17.10
2010,06,16,11,39,17.00
2010,06,16,11,40,17.00
2010,06,16,11,41,17.10
2010,06,16,11,42,17.20
2010,06,16,11,43,17.30
2010,06,16,11,44,17.30
2010,06,16,11,45,17.30
2010,06,16,11,46,17.30
2010,06,16,11,47,17.30
2010,06,16,11,48,17.30
2010,06,16,11,49,17.30
2010,06,16,11,50,17.40
2010,06,16,11,51,17.40
2010,06,16,11,52,17.40
2010,06,16,11,53,17.50
2010,06,16,11,54,17.50
2010,06,16,11,55,17.50
2010,06,16,11,56,17.40
2010,06,16,11,57,17.40
2010,06,16,11,58,17.30
2010,06,16,11,59,17.10
2010,06,16,12,00,17.10
2010,06,16,12,01,17.10
2010,06,16,12,02,17.10
2010,06,16,12,03,17.20
2010,06,16,12,04,17.30
2010,06,16,12,05,17.40
2010,06,16,12,06,17.40
2010,06,16,12,07,17.50
2010,06,16,12,08,17.60
2010,06,16,12,09,17.60
2010,06,16,12,10,17.70
2010,06,16,12,11,17.70
2010,06,16,12,12,17.70
2010,06,16,12,13,17.70
2010,06,16,12,14,17.70
2010,06,16,12,15,17.70
2010,06,16,12,16,17.70
2010,06,16,12,17,17.80
2010,06,16,12,18,17.80
2010,06,16,12,19,17.80
2010,06,16,12,20,17.90
2010,06,16,12,21,17.90
2010,06,16,12,22,17.90
2010,06,16,12,23,17.90
2010,06,16,12,24,17.80
2010,06,16,12,25,17.80
2010,06,16,12,26,17.70
2010,06,16,12,27,17.70
2010,06,16,12,28,17.80
2010,06,16,12,29,17.90
2010,06,16,12,30,18.00
2010,06,16,12,31,17.90
2010,06,16,12,32,17.80
2010,06,16,12,33,17.70
2010,06,16,12,34,17.50
2010,06,16,12,35,17.30
2010,06,16,12,36,17.30
2010,06,16,12,37,17.30
2010,06,16,12,38,17.30
2010,06,16,12,39,17.30
2010,06,16,12,40,17.40
2010,06,16,12,41,17.40
2010,06,16,12,42,17.50
2010,06,16,12,43,17.60
2010,06,16,12,44,17.60
2010,06,16,12,45,17.70
2010,06,16,12,46,17.80
2010,06,16,12,47,17.90
2010,06,16,12,48,17.90
2010,06,16,12,49,18.00
2010,06,16,12,50,18.00
2010,06,16,12,51,18.00
2010,06,16,12,52,17.90
2010,06,16,12,53,17.90
2010,06,16,12,54,17.90
2010,06,16,12,55,17.90
2010,06,16,12,56,17.90
2010,06,16,12,57,17.80
2010,06,16,12,58,17.70
2010,06,16,12,59,17.70
2010,06,16,13,00,17.70
2010,06,16,13,01,17.70
2010,06,16,13,02,17.70
2010,06,16,13,03,17.70
2010,06,16,13,04,17.60
2010,06,16,13,05,17.60
2010,06,16,13,06,17.60
2010,06,16,13,07,17.60
2010,06,16,13,08,17.70
2010,06,16,13,09,17.80
2010,06,16,13,10,17.90
2010,06,16,13,11,18.00
2010,06,16,13,12,18.20
2010,06,16,13,13,18.30
2010,06,16,13,14,18.40
2010,06,16,13,15,18.40
2010,06,16,13,16,18.40
2010,06,16,13,17,18.40
2010,06,16,13,18,18.40
2010,06,16,13,19,18.30
2010,06,16,13,20,18.30
2010,06,16,13,21,18.40
2010,06,16,13,22,18.50
2010,06,16,13,23,18.60
2010,06,16,13,24,18.60
2010,06,16,13,25,18.70
2010,06,16,13,26,18.60
2010,06,16,13,27,18.50
2010,06,16,13,28,18.40
2010,06,16,13,29,18.30
2010,06,16,13,30,18.20
2010,06,16,13,31,18.20
2010,06,16,13,32,18.20
2010,06,16,13,33,18.20
2010,06,16,13,34,18.30
2010,06,16,13,35,18.30
2010,06,16,13,36,18.30
2010,06,16,13,37,18.30
2010,06,16,13,38,18.20
2010,06,16,13,39,18.20
2010,06,16,13,40,18.20
2010,06,16,13,41,18.30
2010,06,16,13,42,18.40
2010,06,16,13,43,18.50
2010,06,16,13,44,18.60
2010,06,16,13,45,18.70
2010,06,16,13,46,18.90
2010,06,16,13,47,19.00
2010,06,16,13,48,19.10
2010,06,16,13,49,19.10
2010,06,16,13,50,19.10
2010,06,16,13,51,19.00
2010,06,16,13,52,19.00
2010,06,16,13,53,19.00
2010,06,16,13,54,18.90
2010,06,16,13,55,18.80
2010,06,16,13,56,18.80
2010,06,16,13,57,18.80
2010,06,16,13,58,18.90
2010,06,16,13,59,19.00
2010,06,16,14,00,19.00
2010,06,16,14,01,18.90
2010,06,16,14,02,18.90
2010,06,16,14,03,18.90
2010,06,16,14,04,18.80
2010,06,16,14,05,18.80
2010,06,16,14,06,18.70
2010,06,16,14,07,18.70
2010,06,16,14,08,18.70
2010,06,16,14,09,18.80
2010,06,16,14,10,18.70
2010,06,16,14,11,18.70
2010,06,16,14,12,18.70
2010,06,16,14,13,18.60
2010,06,16,14,14,18.60
2010,06,16,14,15,18.60
2010,06,16,14,16,18.60
2010,06,16,14,17,18.60
2010,06,16,14,18,18.70
2010,06,16,14,19,18.80
2010,06,16,14,20,18.90
2010,06,16,14,21,19.00
2010,06,16,14,22,18.80
2010,06,16,14,23,18.70
2010,06,16,14,24,18.70
2010,06,16,14,25,18.70
2010,06,16,14,26,18.80
2010,06,16,14,27,18.80
2010,06,16,14,28,18.90
2010,06,16,14,29,18.90
2010,06,16,14,30,19.00
2010,06,16,14,31,19.10
2010,06,16,14,32,19.10
2010,06,16,14,33,19.00
2010,06,16,14,34,18.90
2010,06,16,14,35,18.90
2010,06,16,14,36,18.90
2010,06,16,14,37,19.00
2010,06,16,14,38,19.10
2010,06,16,14,39,19.10
2010,06,16,14,40,19.10
2010,06,16,14,41,19.10
2010,06,16,14,42,19.10
2010,06,16,14,43,19.10
2010,06,16,14,44,19.20
2010,06,16,14,45,19.10
2010,06,16,14,46,19.00
2010,06,16,14,47,18.90
2010,06,16,14,48,18.90
2010,06,16,14,49,18.90
2010,06,16,14,50,18.90
2010,06,16,14,51,18.80
2010,06,16,14,52,18.80
2010,06,16,14,53,18.80
2010,06,16,14,54,18.80
2010,06,16,14,55,18.80
2010,06,16,14,56,18.90
2010,06,16,14,57,19.10
2010,06,16,14,58,19.20
2010,06,16,14,59,19.20
2010,06,16,15,00,19.30
2010,06,16,15,01,19.40
2010,06,16,15,02,19.40
2010,06,16,15,03,19.50
2010,06,16,15,04,19.40
2010,06,16,15,05,19.30
2010,06,16,15,06,19.20
2010,06,16,15,07,19.20
2010,06,16,15,08,19.20
2010,06,16,15,09,19.30
2010,06,16,15,10,19.30
2010,06,16,15,11,19.30
2010,06,16,15,12,19.20
2010,06,16,15,13,19.20
2010,06,16,15,14,19.10
2010,06,16,15,15,19.00
2010,06,16,15,16,18.90
2010,06,16,15,17,18.90
2010,06,16,15,18,18.90
2010,06,16,15,19,18.80
2010,06,16,15,20,18.80
2010,06,16,15,21,18.90
2010,06,16,15,22,18.90
2010,06,16,15,23,18.80
2010,06,16,15,24,18.90
2010,06,16,15,25,18.90
2010,06,16,15,26,18.90
2010,06,16,15,27,18.90
2010,06,16,15,28,19.00
2010,06,16,15,29,19.10
2010,06,16,15,30,19.20
2010,06,16,15,31,19.30
2010,06,16,15,32,19.30
2010,06,16,15,33,19.20
2010,06,16,15,34,19.20
2010,06,16,15,35,19.30
2010,06,16,15,36,19.30
2010,06,16,15,37,19.30
2010,06,16,15,38,19.20
2010,06,16,15,39,19.20
2010,06,16,15,40,19.20
2010,06,16,15,41,19.30
2010,06,16,15,42,19.30
2010,06,16,15,43,19.20
2010,06,16,15,44,19.20
2010,06,16,15,45,19.20
2010,06,16,15,46,19.30
2010,06,16,15,47,19.30
2010,06,16,15,48,19.30
2010,06,16,15,49,19.30
2010,06,16,15,50,19.20
2010,06,16,15,51,19.20
2010,06,16,15,52,19.10
2010,06,16,15,53,19.10
2010,06,16,15,54,19.00
2010,06,16,15,55,19.00
2010,06,16,15,56,19.10
2010,06,16,15,57,19.10
2010,06,16,15,58,19.20
2010,06,16,15,59,19.20
2010,06,16,16,00,19.20
2010,06,16,16,01,19.10
2010,06,16,16,02,19.10
2010,06,16,16,03,19.10
2010,06,16,16,04,19.10
2010,06,16,16,05,19.10
2010,06,16,16,06,19.00
2010,06,16,16,07,18.90
2010,06,16,16,08,18.80
2010,06,16,16,09,18.70
2010,06,16,16,10,18.60
2010,06,16,16,11,18.50
2010,06,16,16,12,18.50
2010,06,16,16,13,18.50
2010,06,16,16,14,18.50
2010,06,16,16,15,18.50
2010,06,16,16,16,18.50
2010,06,16,16,17,18.50
2010,06,16,16,18,18.50
2010,06,16,16,19,18.50
2010,06,16,16,20,18.50
2010,06,16,16,21,18.60
2010,06,16,16,22,18.60
2010,06,16,16,23,18.70
2010,06,16,16,24,18.80
2010,06,16,16,25,18.80
2010,06,16,16,26,18.90
2010,06,16,16,27,19.00
2010,06,16,16,28,19.10
2010,06,16,16,29,19.20
2010,06,16,16,30,19.20
2010,06,16,16,31,19.20
2010,06,16,16,32,19.20
2010,06,16,16,33,19.20
2010,06,16,16,34,19.10
2010,06,16,16,35,19.10
2010,06,16,16,36,19.20
2010,06,16,16,37,19.20
2010,06,16,16,38,19.20
2010,06,16,16,39,19.20
2010,06,16,16,40,19.20
2010,06,16,16,41,19.20
2010,06,16,16,42,19.20
2010,06,16,16,43,19.20
2010,06,16,16,44,19.10
2010,06,16,16,45,19.10
2010,06,16,16,46,19.00
2010,06,16,16,47,18.90
2010,06,16,16,48,18.80
2010,06,16,16,49,18.80
2010,06,16,16,50,18.80
2010,06,16,16,51,18.70
2010,06,16,16,52,18.80
2010,06,16,16,53,18.70
2010,06,16,16,54,18.70
2010,06,16,16,55,18.70
2010,06,16,16,56,18.70
2010,06,16,16,57,18.70
2010,06,16,16,58,18.70
2010,06,16,16,59,18.70
2010,06,16,17,00,18.60
2010,06,16,17,01,18.60
2010,06,16,17,02,18.60
2010,06,16,17,03,18.60
2010,06,16,17,04,18.50
2010,06,16,17,05,18.50
2010,06,16,17,06,18.40
2010,06,16,17,07,18.30
2010,06,16,17,08,18.20
2010,06,16,17,09,18.20
2010,06,16,17,10,18.10
2010,06,16,17,11,18.10
2010,06,16,17,12,18.00
2010,06,16,17,13,18.00
2010,06,16,17,14,17.90
2010,06,16,17,15,17.90
2010,06,16,17,16,17.80
2010,06,16,17,17,17.80
2010,06,16,17,18,17.80
2010,06,16,17,19,17.80
2010,06,16,17,20,17.80
2010,06,16,17,21,17.80
2010,06,16,17,22,17.70
2010,06,16,17,23,17.70
2010,06,16,17,24,17.70
2010,06,16,17,25,17.70
2010,06,16,17,26,17.60
2010,06,16,17,27,17.60
2010,06,16,17,28,17.60
2010,06,16,17,29,17.60
2010,06,16,17,30,17.60
2010,06,16,17,31,17.60
2010,06,16,17,32,17.50
2010,06,16,17,33,17.50
2010,06,16,17,34,17.50
2010,06,16,17,35,17.50
2010,06,16,17,36,17.50
2010,06,16,17,37,17.50
2010,06,16,17,38,17.50
2010,06,16,17,39,17.50
2010,06,16,17,40,17.40